| time (UTC) | temp C | wind direction | speed KPH | gust KPH | rain 1hr cm | rain 24hr cm | rain mn cm | humidity % | barometer mb |
| 20260507205233 | 8 | 276 | 17.7 | 22.5 | 0.00 | 0.00 | 0.00 | 47 | 1010.7 |
| 20260507204729 | 9 | 249 | 19.3 | 25.7 | 0.00 | 0.00 | 0.00 | 44 | 1010.9 |
| 20260507204227 | 9 | 321 | 6.4 | 9.7 | 0.00 | 0.00 | 0.00 | 43 | 1010.9 |
| 20260507203725 | 9 | 249 | 16.1 | 17.7 | 0.00 | 0.00 | 0.00 | 44 | 1010.8 |
| 20260507203222 | 9 | 260 | 17.7 | 20.9 | 0.00 | 0.00 | 0.00 | 45 | 1010.9 |
| 20260507202718 | 9 | 258 | 8.0 | 14.5 | 0.00 | 0.00 | 0.00 | 47 | 1011.0 |
| 20260507202214 | 8 | 218 | 9.7 | 14.5 | 0.00 | 0.00 | 0.00 | 48 | 1010.8 |
| 20260507201709 | 10 | 244 | 8.0 | 9.7 | 0.00 | 0.00 | 0.00 | 47 | 1011.2 |
| 20260507201206 | 9 | 220 | 6.4 | 14.5 | 0.00 | 0.00 | 0.00 | 48 | 1011.0 |
| 20260507200702 | 9 | 299 | 11.3 | 14.5 | 0.00 | 0.00 | 0.00 | 50 | 1010.8 |
| 20260507200158 | 9 | 286 | 8.0 | 12.9 | 0.00 | 0.00 | 0.00 | 50 | 1011.1 |
| 20260507195655 | 8 | 321 | 11.3 | 17.7 | 0.00 | 0.00 | 0.00 | 51 | 1011.1 |
| 20260507195152 | 8 | 274 | 8.0 | 22.5 | 0.00 | 0.00 | 0.00 | 48 | 1011.2 |
| 20260507194649 | 9 | 263 | 20.9 | 24.1 | 0.00 | 0.00 | 0.00 | 48 | 1011.3 |
| 20260507194145 | 9 | 261 | 8.0 | 12.9 | 0.00 | 0.00 | 0.00 | 50 | 1011.1 |
| 20260507193641 | 9 | 12 | 9.7 | 12.9 | 0.00 | 0.00 | 0.00 | 50 | 1011.1 |
| 20260507193139 | 10 | 6 | 9.7 | 16.1 | 0.00 | 0.00 | 0.00 | 50 | 1011.2 |
| 20260507192635 | 10 | 337 | 11.3 | 16.1 | 0.00 | 0.00 | 0.00 | 50 | 1011.0 |
| 20260507192132 | 9 | 245 | 4.8 | 11.3 | 0.00 | 0.00 | 0.00 | 50 | 1011.2 |
| 20260507191627 | 10 | 288 | 8.0 | 20.9 | 0.00 | 0.00 | 0.00 | 52 | 1011.1 |
| 20260507191124 | 9 | 325 | 6.4 | 12.9 | 0.00 | 0.00 | 0.00 | 51 | 1011.3 |
| 20260507190622 | 8 | 277 | 14.5 | 20.9 | 0.00 | 0.00 | 0.00 | 50 | 1011.3 |
| 20260507190121 | 8 | 234 | 17.7 | 20.9 | 0.00 | 0.00 | 0.00 | 52 | 1011.4 |
| 20260507185619 | 8 | 235 | 14.5 | 17.7 | 0.00 | 0.00 | 0.00 | 52 | 1011.4 |
| 20260507185115 | 8 | 291 | 8.0 | 12.9 | 0.00 | 0.00 | 0.00 | 55 | 1011.1 |
| 20260507184613 | 8 | 265 | 4.8 | 9.7 | 0.00 | 0.00 | 0.00 | 51 | 1011.3 |
| 20260507184111 | 8 | 217 | 4.8 | 14.5 | 0.00 | 0.00 | 0.00 | 54 | 1011.3 |
| 20260507183607 | 8 | 222 | 14.5 | 16.1 | 0.00 | 0.00 | 0.00 | 51 | 1011.5 |
| 20260507183103 | 8 | 272 | 9.7 | 14.5 | 0.00 | 0.00 | 0.00 | 57 | 1011.2 |
| 20260507182600 | 8 | 221 | 11.3 | 14.5 | 0.00 | 0.00 | 0.00 | 55 | 1011.6 |
| 20260507182055 | 7 | 308 | 8.0 | 11.3 | 0.00 | 0.00 | 0.00 | 56 | 1011.3 |
| 20260507181553 | 7 | 263 | 8.0 | 12.9 | 0.00 | 0.00 | 0.00 | 57 | 1011.7 |
| 20260507181049 | 7 | 271 | 11.3 | 12.9 | 0.00 | 0.00 | 0.00 | 56 | 1011.8 |
| 20260507180546 | 7 | 266 | 9.7 | 14.5 | 0.00 | 0.00 | 0.00 | 55 | 1011.8 |
| 20260507180043 | 7 | 277 | 19.3 | 22.5 | 0.00 | 0.00 | 0.00 | 56 | 1011.9 |
| 20260507175539 | 7 | 266 | 14.5 | 22.5 | 0.00 | 0.00 | 0.00 | 57 | 1011.8 |
| 20260507175037 | 7 | 341 | 16.1 | 20.9 | 0.00 | 0.00 | 0.00 | 57 | 1011.8 |
| 20260507174533 | 7 | 279 | 4.8 | 20.9 | 0.00 | 0.00 | 0.00 | 56 | 1011.9 |
| 20260507174031 | 7 | 255 | 8.0 | 14.5 | 0.00 | 0.00 | 0.00 | 59 | 1011.7 |
| 20260507173528 | 7 | 274 | 11.3 | 17.7 | 0.00 | 0.00 | 0.00 | 59 | 1012.1 |
| 20260507173025 | 7 | 285 | 8.0 | 14.5 | 0.00 | 0.00 | 0.00 | 60 | 1012.0 |
| 20260507172521 | 7 | 262 | 9.7 | 12.9 | 0.00 | 0.00 | 0.00 | 60 | 1012.1 |
| 20260507172018 | 7 | 237 | 8.0 | 9.7 | 0.00 | 0.00 | 0.00 | 59 | 1012.1 |
| 20260507171513 | 7 | 258 | 8.0 | 12.9 | 0.00 | 0.00 | 0.00 | 60 | 1012.2 |
| 20260507171011 | 7 | 309 | 9.7 | 12.9 | 0.00 | 0.00 | 0.00 | 58 | 1012.1 |
| 20260507170508 | 7 | 274 | 4.8 | 14.5 | 0.00 | 0.00 | 0.00 | 59 | 1012.2 |
| 20260507170004 | 7 | 259 | 4.8 | 12.9 | 0.00 | 0.00 | 0.00 | 58 | 1012.5 |
| 20260507165500 | 7 | 261 | 11.3 | 17.7 | 0.00 | 0.00 | 0.00 | 57 | 1012.1 |
| 20260507164956 | 7 | 262 | 9.7 | 12.9 | 0.00 | 0.00 | 0.00 | 54 | 1012.4 |
| 20260507164453 | 7 | 240 | 11.3 | 20.9 | 0.00 | 0.00 | 0.00 | 57 | 1012.3 |
| 20260507163950 | 7 | 242 | 9.7 | 20.9 | 0.00 | 0.00 | 0.00 | 54 | 1012.5 |
| 20260507163447 | 7 | 236 | 8.0 | 16.1 | 0.00 | 0.00 | 0.00 | 55 | 1012.3 |
| 20260507162944 | 7 | 240 | 8.0 | 11.3 | 0.00 | 0.00 | 0.00 | 55 | 1012.7 |
| 20260507162439 | 7 | 277 | 11.3 | 22.5 | 0.00 | 0.00 | 0.00 | 55 | 1012.5 |
| 20260507161937 | 7 | 227 | 19.3 | 22.5 | 0.00 | 0.00 | 0.00 | 54 | 1012.5 |
| 20260507161433 | 7 | 307 | 4.8 | 17.7 | 0.00 | 0.00 | 0.00 | 56 | 1012.7 |
| 20260507160930 | 7 | 259 | 16.1 | 20.9 | 0.00 | 0.00 | 0.00 | 55 | 1012.6 |
| 20260507160426 | 7 | 235 | 9.7 | 16.1 | 0.00 | 0.00 | 0.00 | 55 | 1012.6 |
| 20260507155921 | 7 | 264 | 14.5 | 20.9 | 0.00 | 0.00 | 0.00 | 54 | 1012.8 |
| 20260507155418 | 7 | 255 | 12.9 | 20.9 | 0.00 | 0.00 | 0.00 | 55 | 1012.9 |
| 20260507154915 | 7 | 217 | 11.3 | 22.5 | 0.00 | 0.00 | 0.00 | 55 | 1012.6 |
| 20260507154412 | 7 | 227 | 12.9 | 20.9 | 0.00 | 0.00 | 0.00 | 54 | 1012.5 |
| 20260507153909 | 7 | 270 | 8.0 | 22.5 | 0.00 | 0.00 | 0.00 | 57 | 1012.7 |
| 20260507153406 | 7 | 221 | 14.5 | 16.1 | 0.00 | 0.00 | 0.00 | 56 | 1012.6 |
| 20260507152902 | 7 | 236 | 20.9 | 24.1 | 0.00 | 0.00 | 0.00 | 55 | 1013.0 |
| 20260507152358 | 7 | 263 | 8.0 | 17.7 | 0.00 | 0.00 | 0.00 | 58 | 1012.8 |
| 20260507151854 | 7 | 274 | 12.9 | 17.7 | 0.00 | 0.00 | 0.00 | 56 | 1013.0 |
| 20260507151351 | 7 | 268 | 8.0 | 16.1 | 0.00 | 0.00 | 0.00 | 57 | 1012.9 |
| 20260507150848 | 7 | 272 | 11.3 | 16.1 | 0.00 | 0.00 | 0.00 | 58 | 1013.0 |
| 20260507150345 | 7 | 281 | 22.5 | 25.7 | 0.00 | 0.00 | 0.00 | 56 | 1013.0 |
| 20260507145840 | 7 | 219 | 16.1 | 20.9 | 0.00 | 0.00 | 0.00 | 55 | 1013.0 |
| 20260507145336 | 7 | 253 | 8.0 | 17.7 | 0.00 | 0.00 | 0.00 | 56 | 1012.9 |
| 20260507144834 | 7 | 218 | 16.1 | 24.1 | 0.00 | 0.00 | 0.00 | 57 | 1012.9 |
| 20260507144326 | 7 | 214 | 9.7 | 14.5 | 0.00 | 0.00 | 0.00 | 59 | 1012.9 |
| 20260507143822 | 7 | 253 | 9.7 | 14.5 | 0.00 | 0.00 | 0.00 | 61 | 1012.7 |
| 20260507143319 | 7 | 234 | 9.7 | 17.7 | 0.00 | 0.00 | 0.00 | 60 | 1012.9 |
| 20260507142815 | 6 | 214 | 11.3 | 12.9 | 0.00 | 0.00 | 0.00 | 59 | 1013.0 |
| 20260507142312 | 6 | 257 | 9.7 | 14.5 | 0.00 | 0.00 | 0.00 | 60 | 1012.8 |
| 20260507141809 | 6 | 197 | 17.7 | 20.9 | 0.00 | 0.00 | 0.00 | 60 | 1012.6 |
| 20260507141306 | 6 | 248 | 11.3 | 16.1 | 0.00 | 0.00 | 0.00 | 61 | 1012.8 |
| 20260507140801 | 6 | 263 | 12.9 | 17.7 | 0.00 | 0.00 | 0.00 | 64 | 1013.1 |
| 20260507140259 | 6 | 241 | 8.0 | 16.1 | 0.00 | 0.00 | 0.00 | 65 | 1013.1 |
| 20260507135756 | 6 | 242 | 11.3 | 16.1 | 0.00 | 0.00 | 0.00 | 65 | 1013.0 |
| 20260507135253 | 6 | 263 | 9.7 | 20.9 | 0.00 | 0.00 | 0.00 | 65 | 1013.0 |
| 20260507134750 | 6 | 270 | 8.0 | 12.9 | 0.00 | 0.00 | 0.00 | 64 | 1013.2 |
| 20260507134246 | 6 | 240 | 8.0 | 17.7 | 0.00 | 0.00 | 0.00 | 66 | 1012.8 |
| 20260507133742 | 6 | 242 | 9.7 | 11.3 | 0.00 | 0.00 | 0.00 | 69 | 1012.9 |
| 20260507133239 | 6 | 278 | 9.7 | 11.3 | 0.00 | 0.00 | 0.00 | 70 | 1013.0 |
| 20260507132736 | 6 | 235 | 11.3 | 14.5 | 0.00 | 0.00 | 0.00 | 70 | 1012.9 |
| 20260507132233 | 6 | 236 | 6.4 | 14.5 | 0.00 | 0.00 | 0.00 | 71 | 1013.0 |
| 20260507131730 | 6 | 258 | 8.0 | 9.7 | 0.00 | 0.00 | 0.00 | 73 | 1013.0 |
| 20260507131227 | 5 | 255 | 8.0 | 9.7 | 0.00 | 0.00 | 0.00 | 75 | 1012.9 |
| 20260507130724 | 5 | 261 | 8.0 | 12.9 | 0.00 | 0.00 | 0.00 | 74 | 1012.9 |
| 20260507130222 | 5 | 228 | 8.0 | 12.9 | 0.00 | 0.00 | 0.00 | 74 | 1013.0 |
| 20260507125720 | 5 | 223 | 9.7 | 12.9 | 0.00 | 0.00 | 0.00 | 76 | 1012.7 |
| 20260507125217 | 5 | 222 | 11.3 | 12.9 | 0.00 | 0.00 | 0.00 | 75 | 1012.8 |
| 20260507124714 | 5 | 258 | 8.0 | 16.1 | 0.00 | 0.00 | 0.00 | 75 | 1012.7 |
| 20260507124211 | 5 | 242 | 8.0 | 11.3 | 0.00 | 0.00 | 0.00 | 76 | 1012.8 |
| 20260507123709 | 5 | 238 | 4.8 | 9.7 | 0.00 | 0.00 | 0.00 | 78 | 1012.6 |
| 20260507123206 | 5 | 217 | 9.7 | 11.3 | 0.00 | 0.00 | 0.00 | 79 | 1012.8 |
| 20260507122701 | 5 | 226 | 4.8 | 9.7 | 0.00 | 0.00 | 0.00 | 80 | 1012.9 |
| 20260507122157 | 5 | 250 | 4.8 | 11.3 | 0.00 | 0.00 | 0.00 | 81 | 1012.9 |
| 20260507121653 | 4 | 233 | 8.0 | 9.7 | 0.00 | 0.00 | 0.00 | 82 | 1012.7 |
| 20260507121149 | 3 | 222 | 6.4 | 9.7 | 0.00 | 0.00 | 0.00 | 84 | 1012.6 |
| 20260507120646 | 3 | 213 | 4.8 | 8.0 | 0.00 | 0.00 | 0.00 | 86 | 1012.6 |
| 20260507120143 | 2 | 218 | 4.8 | 4.8 | 0.00 | 0.00 | 0.00 | 89 | 1012.5 |
| 20260507115639 | 2 | 216 | 1.6 | 3.2 | 0.00 | 0.00 | 0.00 | 89 | 1012.5 |
| 20260507115134 | 2 | 212 | 3.2 | 3.2 | 0.00 | 0.00 | 0.00 | 90 | 1012.5 |
| 20260507114630 | 2 | 215 | 1.6 | 3.2 | 0.00 | 0.00 | 0.00 | 91 | 1012.6 |
| 20260507114128 | 1 | 213 | 4.8 | 4.8 | 0.00 | 0.00 | 0.00 | 93 | 1012.5 |
| 20260507113625 | 1 | 221 | 3.2 | 3.2 | 0.00 | 0.00 | 0.00 | 95 | 1012.4 |
| 20260507113122 | 0 | 229 | 1.6 | 3.2 | 0.00 | 0.00 | 0.00 | 99 | 1012.7 |
| 20260507112620 | 0 | 230 | 1.6 | 1.6 | 0.00 | 0.00 | 0.00 | 99 | 1012.4 |
| 20260507112116 | 0 | 230 | 1.6 | 1.6 | 0.00 | 0.00 | 0.00 | 99 | 1012.4 |
| 20260507111614 | 0 | 230 | 1.6 | 1.6 | 0.00 | 0.00 | 0.00 | 99 | 1012.4 |
| 20260507111110 | 0 | 229 | 1.6 | 1.6 | 0.00 | 0.00 | 0.00 | 99 | 1012.4 |
| 20260507110607 | 0 | 229 | 1.6 | 1.6 | 0.00 | 0.00 | 0.00 | 99 | 1012.1 |
| 20260507110103 | 0 | 229 | 1.6 | 1.6 | 0.00 | 0.00 | 0.00 | 99 | 1012.1 |
| 20260507105600 | 0 | 229 | 1.6 | 1.6 | 0.00 | 0.00 | 0.00 | 99 | 1012.3 |
| 20260507105056 | 0 | 228 | 0.0 | 0.0 | 0.00 | 0.00 | 0.00 | 99 | 1012.2 |
| 20260507104554 | 0 | 228 | 1.6 | 3.2 | 0.00 | 0.00 | 0.00 | 99 | 1012.1 |
| 20260507104050 | 0 | 228 | 1.6 | 3.2 | 0.00 | 0.00 | 0.00 | 99 | 1012.2 |
| 20260507103546 | 0 | 229 | 1.6 | 1.6 | 0.00 | 0.00 | 0.00 | 99 | 1012.1 |
| 20260507103043 | 0 | 229 | 1.6 | 1.6 | 0.00 | 0.00 | 0.00 | 99 | 1012.2 |
| 20260507102539 | 0 | 229 | 1.6 | 3.2 | 0.00 | 0.00 | 0.00 | 99 | 1012.0 |
| 20260507102036 | 0 | 229 | 3.2 | 3.2 | 0.00 | 0.00 | 0.00 | 99 | 1012.3 |
| 20260507101531 | 0 | 229 | 0.0 | 0.0 | 0.00 | 0.00 | 0.00 | 99 | 1012.2 |
| 20260507101027 | 0 | 229 | 0.0 | 0.0 | 0.00 | 0.00 | 0.00 | 99 | 1012.0 |
| 20260507100525 | 0 | 229 | 0.0 | 0.0 | 0.00 | 0.00 | 0.00 | 99 | 1012.1 |
| 20260507100023 | 0 | 229 | 0.0 | 0.0 | 0.00 | 0.00 | 0.00 | 99 | 1012.0 |
| 20260507095521 | 0 | 229 | 0.0 | 0.0 | 0.00 | 0.00 | 0.00 | 99 | 1012.3 |
| 20260507095017 | 0 | 229 | 0.0 | 0.0 | 0.00 | 0.00 | 0.00 | 99 | 1012.2 |
| 20260507094513 | 0 | 229 | 0.0 | 0.0 | 0.00 | 0.00 | 0.00 | 99 | 1012.0 |
| 20260507094011 | 0 | 229 | 0.0 | 0.0 | 0.00 | 0.00 | 0.00 | 99 | 1012.1 |
| 20260507093508 | 0 | 229 | 0.0 | 0.0 | 0.00 | 0.00 | 0.00 | 99 | 1012.1 |
| 20260507093007 | 0 | 229 | 0.0 | 0.0 | 0.00 | 0.00 | 0.00 | 99 | 1012.0 |
| 20260507092502 | 0 | 229 | 0.0 | 0.0 | 0.00 | 0.00 | 0.00 | 99 | 1011.9 |
| 20260507092000 | 0 | 229 | 0.0 | 0.0 | 0.00 | 0.00 | 0.00 | 99 | 1012.1 |
| 20260507091456 | 0 | 229 | 0.0 | 0.0 | 0.00 | 0.00 | 0.00 | 99 | 1012.3 |
| 20260507090952 | 0 | 229 | 0.0 | 0.0 | 0.00 | 0.00 | 0.00 | 99 | 1012.2 |
| 20260507090448 | 0 | 229 | 0.0 | 0.0 | 0.00 | 0.00 | 0.00 | 99 | 1012.3 |
| 20260507085945 | 0 | 229 | 0.0 | 0.0 | 0.00 | 0.00 | 0.00 | 99 | 1012.5 |
| 20260507085442 | 0 | 229 | 0.0 | 0.0 | 0.00 | 0.00 | 0.00 | 99 | 1012.4 |
| 20260507084938 | 0 | 229 | 0.0 | 0.0 | 0.00 | 0.00 | 0.00 | 99 | 1012.2 |
| 20260507084435 | 0 | 229 | 0.0 | 0.0 | 0.00 | 0.00 | 0.00 | 98 | 1012.3 |
| 20260507083932 | 1 | 229 | 0.0 | 0.0 | 0.00 | 0.00 | 0.00 | 98 | 1012.4 |
| 20260507083429 | 0 | 229 | 0.0 | 0.0 | 0.00 | 0.00 | 0.00 | 98 | 1012.4 |
| 20260507082925 | 1 | 229 | 0.0 | 0.0 | 0.00 | 0.00 | 0.00 | 98 | 1012.3 |
| 20260507082421 | 1 | 229 | 0.0 | 0.0 | 0.00 | 0.00 | 0.00 | 98 | 1012.3 |
| 20260507081918 | 1 | 229 | 0.0 | 0.0 | 0.00 | 0.00 | 0.00 | 98 | 1012.5 |
| 20260507081414 | 1 | 229 | 0.0 | 0.0 | 0.00 | 0.00 | 0.00 | 98 | 1012.4 |
| 20260507080911 | 1 | 229 | 0.0 | 0.0 | 0.00 | 0.00 | 0.00 | 97 | 1012.2 |
| 20260507080408 | 1 | 229 | 0.0 | 0.0 | 0.00 | 0.00 | 0.00 | 98 | 1012.5 |
| 20260507075903 | 1 | 229 | 0.0 | 0.0 | 0.00 | 0.00 | 0.00 | 98 | 1012.3 |
| 20260507075359 | 1 | 229 | 0.0 | 0.0 | 0.00 | 0.00 | 0.00 | 97 | 1012.5 |
| 20260507074856 | 1 | 229 | 0.0 | 0.0 | 0.00 | 0.00 | 0.00 | 97 | 1012.6 |
| 20260507074353 | 1 | 229 | 0.0 | 0.0 | 0.00 | 0.00 | 0.00 | 96 | 1012.4 |
| 20260507073850 | 1 | 229 | 0.0 | 0.0 | 0.00 | 0.00 | 0.00 | 96 | 1012.7 |
| 20260507073347 | 1 | 229 | 0.0 | 0.0 | 0.00 | 0.00 | 0.00 | 96 | 1012.7 |
| 20260507072844 | 1 | 229 | 0.0 | 0.0 | 0.00 | 0.00 | 0.00 | 97 | 1012.7 |
| 20260507072341 | 2 | 229 | 1.6 | 1.6 | 0.00 | 0.00 | 0.00 | 96 | 1012.6 |
| 20260507071839 | 2 | 229 | 0.0 | 0.0 | 0.00 | 0.00 | 0.00 | 95 | 1012.6 |
| 20260507071336 | 2 | 229 | 0.0 | 0.0 | 0.00 | 0.00 | 0.00 | 92 | 1012.7 |
| 20260507070832 | 2 | 229 | 0.0 | 0.0 | 0.00 | 0.00 | 0.00 | 92 | 1012.7 |
| 20260507070329 | 2 | 229 | 0.0 | 0.0 | 0.00 | 0.00 | 0.00 | 93 | 1012.8 |
| 20260507065826 | 2 | 229 | 0.0 | 0.0 | 0.00 | 0.00 | 0.00 | 94 | 1012.8 |
| 20260507065322 | 2 | 229 | 0.0 | 0.0 | 0.00 | 0.00 | 0.00 | 94 | 1012.8 |
| 20260507064820 | 2 | 229 | 0.0 | 0.0 | 0.00 | 0.00 | 0.00 | 94 | 1012.8 |
| 20260507064318 | 2 | 229 | 0.0 | 0.0 | 0.00 | 0.00 | 0.00 | 94 | 1013.1 |
| 20260507063816 | 2 | 229 | 0.0 | 1.6 | 0.00 | 0.00 | 0.00 | 94 | 1012.9 |
| 20260507063312 | 2 | 229 | 1.6 | 1.6 | 0.00 | 0.00 | 0.00 | 94 | 1012.9 |
| 20260507062809 | 2 | 228 | 0.0 | 0.0 | 0.00 | 0.00 | 0.00 | 92 | 1013.2 |
| 20260507062306 | 2 | 228 | 0.0 | 0.0 | 0.00 | 0.00 | 0.00 | 91 | 1013.2 |
| 20260507061804 | 2 | 228 | 0.0 | 0.0 | 0.00 | 0.00 | 0.00 | 92 | 1013.3 |
| 20260507061302 | 2 | 228 | 0.0 | 0.0 | 0.00 | 0.00 | 0.00 | 92 | 1013.2 |
| 20260507060800 | 2 | 228 | 0.0 | 0.0 | 0.00 | 0.00 | 0.00 | 91 | 1013.1 |
| 20260507060256 | 2 | 229 | 0.0 | 0.0 | 0.00 | 0.00 | 0.00 | 91 | 1013.4 |
| 20260507055753 | 2 | 229 | 0.0 | 0.0 | 0.00 | 0.00 | 0.00 | 92 | 1013.1 |
| 20260507055248 | 2 | 229 | 0.0 | 0.0 | 0.00 | 0.00 | 0.00 | 92 | 1013.2 |
| 20260507054745 | 2 | 229 | 0.0 | 0.0 | 0.00 | 0.00 | 0.00 | 91 | 1013.5 |
| 20260507054241 | 2 | 229 | 0.0 | 0.0 | 0.00 | 0.00 | 0.00 | 92 | 1013.3 |
| 20260507053739 | 2 | 229 | 0.0 | 0.0 | 0.00 | 0.00 | 0.00 | 91 | 1013.3 |
| 20260507053236 | 3 | 229 | 0.0 | 0.0 | 0.00 | 0.00 | 0.00 | 90 | 1013.3 |
| 20260507052735 | 3 | 229 | 0.0 | 0.0 | 0.00 | 0.00 | 0.00 | 86 | 1013.4 |
| 20260507052231 | 3 | 228 | 0.0 | 0.0 | 0.00 | 0.00 | 0.00 | 82 | 1013.3 |
| 20260507051729 | 2 | 228 | 0.0 | 0.0 | 0.00 | 0.00 | 0.00 | 82 | 1013.5 |
| 20260507051226 | 3 | 228 | 0.0 | 0.0 | 0.00 | 0.00 | 0.00 | 83 | 1013.3 |
| 20260507050722 | 3 | 228 | 0.0 | 0.0 | 0.00 | 0.00 | 0.00 | 82 | 1013.5 |
| 20260507050220 | 3 | 229 | 0.0 | 0.0 | 0.00 | 0.00 | 0.00 | 85 | 1013.4 |
| 20260507045716 | 3 | 229 | 0.0 | 0.0 | 0.00 | 0.00 | 0.00 | 87 | 1013.6 |
| 20260507045212 | 3 | 229 | 0.0 | 0.0 | 0.00 | 0.00 | 0.00 | 86 | 1013.4 |
| 20260507044710 | 3 | 229 | 0.0 | 0.0 | 0.00 | 0.00 | 0.00 | 86 | 1013.4 |
| 20260507044206 | 3 | 229 | 0.0 | 0.0 | 0.00 | 0.00 | 0.00 | 86 | 1013.2 |
| 20260507043702 | 3 | 229 | 0.0 | 0.0 | 0.00 | 0.00 | 0.00 | 86 | 1013.5 |
| 20260507043159 | 3 | 228 | 0.0 | 0.0 | 0.00 | 0.00 | 0.00 | 86 | 1013.6 |
| 20260507042656 | 3 | 228 | 0.0 | 0.0 | 0.00 | 0.00 | 0.00 | 84 | 1013.3 |
| 20260507042150 | 3 | 228 | 1.6 | 1.6 | 0.00 | 0.00 | 0.00 | 82 | 1013.6 |
| 20260507041648 | 3 | 228 | 1.6 | 1.6 | 0.00 | 0.00 | 0.00 | 79 | 1013.6 |
| 20260507041144 | 3 | 228 | 1.6 | 1.6 | 0.00 | 0.00 | 0.00 | 76 | 1013.6 |
| 20260507040642 | 3 | 228 | 1.6 | 1.6 | 0.00 | 0.00 | 0.00 | 74 | 1013.6 |
| 20260507040138 | 3 | 228 | 1.6 | 1.6 | 0.00 | 0.00 | 0.00 | 74 | 1013.4 |
| 20260507035634 | 3 | 228 | 1.6 | 1.6 | 0.00 | 0.00 | 0.00 | 74 | 1013.7 |
| 20260507035130 | 3 | 228 | 1.6 | 1.6 | 0.00 | 0.00 | 0.00 | 76 | 1013.8 |
| 20260507034627 | 3 | 229 | 3.2 | 3.2 | 0.00 | 0.00 | 0.00 | 76 | 1013.7 |
| 20260507034125 | 3 | 233 | 3.2 | 3.2 | 0.00 | 0.00 | 0.00 | 78 | 1013.7 |
| 20260507033623 | 3 | 234 | 0.0 | 0.0 | 0.00 | 0.00 | 0.00 | 78 | 1013.4 |
| 20260507033120 | 3 | 234 | 0.0 | 0.0 | 0.00 | 0.00 | 0.00 | 78 | 1013.8 |
| 20260507032617 | 3 | 234 | 0.0 | 0.0 | 0.00 | 0.00 | 0.00 | 77 | 1014.1 |
| 20260507032113 | 3 | 234 | 0.0 | 0.0 | 0.00 | 0.00 | 0.00 | 75 | 1013.7 |
| 20260507031610 | 3 | 234 | 1.6 | 1.6 | 0.00 | 0.00 | 0.00 | 75 | 1013.7 |
| 20260507031106 | 3 | 234 | 0.0 | 0.0 | 0.00 | 0.00 | 0.00 | 76 | 1013.9 |
| 20260507030603 | 3 | 234 | 0.0 | 0.0 | 0.00 | 0.00 | 0.00 | 73 | 1013.8 |
| 20260507030101 | 3 | 234 | 0.0 | 0.0 | 0.00 | 0.00 | 0.00 | 73 | 1013.8 |
| 20260507025558 | 4 | 234 | 0.0 | 0.0 | 0.00 | 0.00 | 0.00 | 74 | 1013.9 |
| 20260507025055 | 4 | 234 | 0.0 | 1.6 | 0.00 | 0.00 | 0.00 | 73 | 1014.1 |
| 20260507024553 | 4 | 234 | 1.6 | 3.2 | 0.00 | 0.00 | 0.00 | 71 | 1013.8 |
| 20260507024050 | 4 | 235 | 1.6 | 3.2 | 0.00 | 0.00 | 0.00 | 72 | 1013.8 |
| 20260507023545 | 4 | 234 | 1.6 | 1.6 | 0.00 | 0.00 | 0.00 | 73 | 1014.1 |
| 20260507023043 | 4 | 234 | 1.6 | 1.6 | 0.00 | 0.00 | 0.00 | 74 | 1013.8 |
| 20260507022539 | 4 | 234 | 1.6 | 3.2 | 0.00 | 0.00 | 0.00 | 75 | 1013.6 |
| 20260507022035 | 4 | 234 | 1.6 | 3.2 | 0.00 | 0.00 | 0.00 | 75 | 1013.6 |
| 20260507021531 | 5 | 238 | 3.2 | 3.2 | 0.00 | 0.00 | 0.00 | 70 | 1013.5 |
| 20260507021028 | 4 | 289 | 0.0 | 0.0 | 0.00 | 0.00 | 0.00 | 69 | 1013.4 |
| 20260507020525 | 4 | 290 | 0.0 | 0.0 | 0.00 | 0.00 | 0.00 | 68 | 1013.7 |
| 20260507020022 | 5 | 292 | 0.0 | 0.0 | 0.00 | 0.00 | 0.00 | 66 | 1013.5 |
| 20260507015520 | 5 | 303 | 0.0 | 0.0 | 0.00 | 0.00 | 0.00 | 68 | 1013.5 |
| 20260507015017 | 5 | 304 | 0.0 | 0.0 | 0.00 | 0.00 | 0.00 | 67 | 1013.6 |
| 20260507014514 | 5 | 303 | 0.0 | 0.0 | 0.00 | 0.00 | 0.00 | 68 | 1013.5 |
| 20260507014010 | 5 | 304 | 0.0 | 0.0 | 0.00 | 0.00 | 0.00 | 67 | 1013.4 |
| 20260507013506 | 5 | 304 | 0.0 | 1.6 | 0.00 | 0.00 | 0.00 | 65 | 1013.4 |
| 20260507013004 | 5 | 329 | 0.0 | 0.0 | 0.00 | 0.00 | 0.00 | 66 | 1013.3 |
| 20260507012501 | 4 | 329 | 1.6 | 1.6 | 0.00 | 0.00 | 0.00 | 67 | 1013.4 |
| 20260507011957 | 5 | 332 | 0.0 | 1.6 | 0.00 | 0.00 | 0.00 | 66 | 1013.5 |
| 20260507011454 | 5 | 333 | 0.0 | 0.0 | 0.00 | 0.00 | 0.00 | 64 | 1013.3 |
| 20260507010950 | 5 | 8 | 0.0 | 1.6 | 0.00 | 0.00 | 0.00 | 63 | 1013.2 |
| 20260507010445 | 5 | 349 | 3.2 | 4.8 | 0.00 | 0.00 | 0.00 | 63 | 1013.3 |
| 20260507005942 | 5 | 5 | 0.0 | 0.0 | 0.00 | 0.00 | 0.00 | 63 | 1013.4 |
| 20260507005439 | 5 | 355 | 1.6 | 1.6 | 0.00 | 0.00 | 0.00 | 63 | 1013.4 |
| 20260507004935 | 5 | 354 | 3.2 | 4.8 | 0.00 | 0.00 | 0.00 | 62 | 1013.4 |
| 20260507004432 | 5 | 340 | 0.0 | 1.6 | 0.00 | 0.00 | 0.00 | 62 | 1013.3 |
| 20260507003930 | 5 | 334 | 0.0 | 3.2 | 0.00 | 0.00 | 0.00 | 63 | 1013.1 |
| 20260507003424 | 5 | 341 | 1.6 | 3.2 | 0.00 | 0.00 | 0.00 | 61 | 1013.2 |
| 20260507002920 | 5 | 352 | 4.8 | 4.8 | 0.00 | 0.00 | 0.00 | 60 | 1013.1 |
| 20260507002416 | 5 | 335 | 3.2 | 4.8 | 0.00 | 0.00 | 0.00 | 61 | 1013.1 |
| 20260507001914 | 5 | 341 | 3.2 | 4.8 | 0.00 | 0.00 | 0.00 | 61 | 1012.9 |
| 20260507001410 | 5 | 347 | 1.6 | 8.0 | 0.00 | 0.00 | 0.00 | 60 | 1013.1 |
| 20260507000908 | 5 | 350 | 3.2 | 8.0 | 0.00 | 0.00 | 0.00 | 60 | 1013.1 |
| 20260507000405 | 5 | 12 | 4.8 | 8.0 | 0.00 | 0.00 | 0.00 | 60 | 1013.1 |
| 20260506235859 | 6 | 326 | 6.4 | 11.3 | 0.00 | 0.00 | 0.00 | 59 | 1013.0 |
| 20260506235356 | 6 | 331 | 4.8 | 4.8 | 0.00 | 0.00 | 0.00 | 59 | 1012.9 |
| 20260506234852 | 6 | 293 | 1.6 | 8.0 | 0.00 | 0.00 | 0.00 | 60 | 1013.1 |
| 20260506234350 | 6 | 4 | 1.6 | 8.0 | 0.00 | 0.00 | 0.00 | 61 | 1012.9 |
| 20260506233847 | 6 | 343 | 3.2 | 8.0 | 0.00 | 0.00 | 0.00 | 59 | 1013.0 |
| 20260506233343 | 6 | 309 | 3.2 | 8.0 | 0.00 | 0.00 | 0.00 | 60 | 1013.0 |
| 20260506232841 | 6 | 332 | 4.8 | 9.7 | 0.00 | 0.00 | 0.00 | 60 | 1013.0 |
| 20260506232336 | 6 | 297 | 1.6 | 4.8 | 0.00 | 0.00 | 0.00 | 60 | 1012.7 |
| 20260506231833 | 6 | 343 | 1.6 | 9.7 | 0.00 | 0.00 | 0.00 | 62 | 1012.7 |
| 20260506231331 | 6 | 303 | 3.2 | 4.8 | 0.00 | 0.00 | 0.00 | 59 | 1013.0 |
| 20260506230828 | 6 | 333 | 1.6 | 4.8 | 0.00 | 0.00 | 0.00 | 60 | 1012.7 |
| 20260506230324 | 6 | 316 | 1.6 | 3.2 | 0.00 | 0.00 | 0.00 | 60 | 1013.0 |
| 20260506225820 | 6 | 13 | 3.2 | 3.2 | 0.00 | 0.00 | 0.00 | 62 | 1013.1 |
| 20260506225318 | 6 | 340 | 3.2 | 9.7 | 0.00 | 0.00 | 0.00 | 59 | 1013.1 |
| 20260506224815 | 6 | 267 | 3.2 | 9.7 | 0.00 | 0.00 | 0.00 | 59 | 1013.2 |
| 20260506224312 | 6 | 328 | 3.2 | 8.0 | 0.00 | 0.00 | 0.00 | 61 | 1013.1 |
| 20260506223808 | 6 | 304 | 3.2 | 4.8 | 0.00 | 0.00 | 0.00 | 60 | 1013.0 |
| 20260506223303 | 6 | 269 | 8.0 | 11.3 | 0.00 | 0.00 | 0.00 | 60 | 1013.1 |
| 20260506222801 | 6 | 299 | 3.2 | 4.8 | 0.00 | 0.00 | 0.00 | 60 | 1013.0 |
| 20260506222256 | 6 | 298 | 4.8 | 8.0 | 0.00 | 0.00 | 0.00 | 61 | 1013.2 |
| 20260506221754 | 6 | 270 | 8.0 | 9.7 | 0.00 | 0.00 | 0.00 | 61 | 1013.2 |
| 20260506221252 | 6 | 337 | 12.9 | 14.5 | 0.00 | 0.00 | 0.00 | 59 | 1013.0 |
| 20260506220749 | 6 | 276 | 8.0 | 11.3 | 0.00 | 0.00 | 0.00 | 59 | 1013.2 |
| 20260506220244 | 6 | 322 | 8.0 | 12.9 | 0.00 | 0.00 | 0.00 | 58 | 1012.9 |
| 20260506215741 | 6 | 274 | 6.4 | 12.9 | 0.00 | 0.00 | 0.00 | 59 | 1013.0 |
| 20260506215237 | 6 | 259 | 8.0 | 12.9 | 0.00 | 0.00 | 0.00 | 58 | 1012.9 |
| 20260506214733 | 6 | 333 | 4.8 | 12.9 | 0.00 | 0.00 | 0.00 | 58 | 1012.8 |
| 20260506214230 | 6 | 273 | 11.3 | 12.9 | 0.00 | 0.00 | 0.00 | 58 | 1012.9 |
| 20260506213728 | 7 | 289 | 8.0 | 12.9 | 0.00 | 0.00 | 0.00 | 60 | 1013.0 |
| 20260506213225 | 7 | 270 | 14.5 | 16.1 | 0.00 | 0.00 | 0.00 | 58 | 1012.8 |
| 20260506212723 | 7 | 260 | 14.5 | 17.7 | 0.00 | 0.00 | 0.00 | 57 | 1012.7 |
| 20260506212218 | 7 | 312 | 9.7 | 12.9 | 0.00 | 0.00 | 0.00 | 58 | 1013.0 |
| 20260506211714 | 7 | 272 | 8.0 | 12.9 | 0.00 | 0.00 | 0.00 | 59 | 1012.8 |
| 20260506211210 | 7 | 286 | 8.0 | 11.3 | 0.00 | 0.00 | 0.00 | 60 | 1012.9 |
| 20260506210707 | 7 | 255 | 4.8 | 14.5 | 0.00 | 0.00 | 0.00 | 58 | 1013.0 |
| 20260506210204 | 7 | 342 | 14.5 | 16.1 | 0.00 | 0.00 | 0.00 | 56 | 1012.9 |
| 20260506205701 | 7 | 329 | 9.7 | 16.1 | 0.00 | 0.00 | 0.00 | 57 | 1012.8 |